User: anonymous   Login
Location: Carella
(45.8167°N, 9.2667°E)
Time: 17:33:51
(UTC+00:00)
Language:

Cosmos 2154 Rocket - Orbit

View from above orbital plane
View from above orbital plane
View from above satellite
View from above satellite

Ground track
Ground track

The orbit data is extracted from the following two-line orbital elements,

1 21667U 91059B   20195.92294624 +.00000000 +00000-0 -15289-4 0  9991
2 21667 082.9055 253.0248 0020873 008.1939 164.7855 13.75102689449721
Epoch (UTC): 13 July 2020 22:09:02
Eccentricity: 0.0020873
inclination: 82.9055°
perigee height: 966 km
apogee height: 996 km
right ascension of ascending node: 253.0248°
argument of perigee: 8.1939°
revolutions per day: 13.75102689
mean anomaly at epoch: 164.7855°
orbit number at epoch: 44972

The dashed part of the orbit path shows where the satellite is in the earth's shadow,  

DLR